Location: Quaker Farms
(41.4276°N, 73.1557°W)
Time: 21:16:21
(UTC+00:00)

S-56A Canister/Altair - Pass Details

Date: 20 June 2021
Orbit: 631 x 2501 km, 38.9° (Epoch: 30 July)

Event Time Altitude Azimuth Distance (km) Brightness Sun altitude
Rises 10:22:01 0° 254° (WSW) 2,916 9.8 9.6°
Reaches altitude 10° 10:24:15 10° 250° (WSW) 2,007 9.1 10.0°
Maximum altitude 10:28:36 60° 170° (S) 772 7.7 10.7°
Drops below altitude 10° 10:33:50 10° 91° (E) 2,398 11.6 11.6°
Sets 10:36:43 0° 88° (E) 3,550 12.5 12.2°
